This demonstration page uses our WeatherBlox Daily Observations layout. Learn more.

Left ArrowRight Arrow

Hourly Observations for October 20, 2021

Temp ( °F °C ) Dew Point ( °F °C ) Humidity (%) Winds ( mph kmh ) Pressure ( in mb ) Visibility ( mi km ) Precip ( " mm )
12:53 am 00:53 Clear 32 undefined 24 -4.4 73 73 ENE 13 20 30.24 1024 10 16 N/A
1:53 am 01:53 Clear 31 -0.6 24 -4.4 76 76 E 14 22 30.23 1024 10 16 N/A
2:53 am 02:53 Clear 31 -0.6 23 -5 72 72 NE 7 11 30.20 1023 10 16 N/A
3:53 am 03:53 Clear 29 -1.7 22 -5.6 75 75 ENE 8 13 30.18 1022 10 16 N/A
4:53 am 04:53 Clear 27 -2.8 20 -6.7 75 75 E 8 13 30.19 1022 10 16 N/A
5:53 am 05:53 Clear 25 -3.9 20 -6.7 81 81 N N/A 30.19 1022 10 16 N/A
6:53 am 06:53 Clear 21 -6.1 19 -7.2 92 92 N N/A 30.20 1023 10 16 N/A
7:53 am 07:53 Sunny 20 -6.7 17 -8.3 89 89 N N/A 30.20 1023 10 16 N/A
8:53 am 08:53 Sunny 28 -2.2 24 -4.4 85 85 E 7 11 30.18 1022 10 16 N/A
9:53 am 09:53 Sunny 35 1.7 26 -3.3 70 70 E 9 15 30.16 1021 10 16 N/A
10:53 am 10:53 Sunny 41 5 28 -2.2 60 60 VRB 3 6 30.13 1020 10 16 N/A
11:53 am 11:53 Sunny 45 7.2 28 -2.2 52 52 N N/A 30.10 1019 10 16 N/A
12:53 pm 12:53 Sunny 49 9.4 28 -2.2 44 44 SW 9 15 30.07 1018 10 16 N/A
1:53 pm 13:53 Sunny 53 11.7 27 -2.8 37 37 S 3 6 30.04 1017 10 16 N/A
2:53 pm 14:53 Sunny 59 15 27 -2.8 29 29 VRB 5 7 30.01 1016 10 16 N/A
3:53 pm 15:53 Sunny 59 15 31 -0.6 35 35 E 10 17 30.00 1016 10 16 N/A
4:53 pm 16:53 Sunny 57 13.9 31 -0.6 37 37 ENE 7 11 30.00 1016 10 16 N/A
5:53 pm 17:53 Sunny 55 12.8 28 -2.2 35 35 SE 7 11 30.01 1016 10 16 N/A
6:53 pm 18:53 Clear 49 9.4 30 -1.1 48 48 NE 9 15 30.04 1017 10 16 N/A
7:53 pm 19:53 Clear 45 7.2 31 -0.6 58 58 ENE 6 9 30.05 1018 10 16 N/A
8:53 pm 20:53 Clear 43 6.1 29 -1.7 58 58 ENE 3 6 30.05 1018 10 16 N/A
9:53 pm 21:53 Partly Cloudy 38 3.3 25 -3.9 60 60 N N/A 30.07 1018 10 16 N/A
10:53 pm 22:53 Clear 33 0.6 23 -5 66 66 WSW 5 7 30.09 1019 10 16 N/A
11:53 pm 23:53 Partly Cloudy 32 undefined 24 -4.4 73 73 S 3 6 30.10 1019 10 16 N/A

Powered by AerisWeather